www.pogodaiklimat.ru

Погода и климат >> Архив погоды >> Индия >> Раджастхан >> Кота


ПОГОДА в Коте

  • Прогноз погоды в Коте
  • Монитор погоды в Коте

АРХИВ ПОГОДЫ в Коте

Время (UTC), дата Ветер
(напр.,м/с)
 
Видим.   Явления Облачность Т
(С)
Тd
(С)
f
(%)
Тe
(С)
Тes
(С)
Комфортность P
(гПа)
Po
(гПа)
Тmin
(С)
Tmax
(С)
R
(мм)
R24
(мм)
S
(см)
06 16.05 СЗ 1 4000 м ясно +36.6 +14.9 28 +38 +63 опасность
солнечного
удара
1007.4 977.4
09 16.05 СЗ 1 4000 м 4/4 600 м
[Cu hum]
+39.0 +14.5 24 +40 +52 опасность
солнечного
удара
1004.5 974.8
12 16.05 С 2 4000 м в посл. час гроза {дождь} 9/6 600 м
[Cb cap Ac trans]
+34.8 +18.3 38 +39 +40 очень
душно
1003.3 973.3 +40.4 0.4
15 16.05 СВ 1 4000 м {дождь} 3/0
[Ci fib]
+27.4 +21.7 71 +35 +35 очень
душно
1007.8 976.9 3
18 16.05 СЗ 1 4000 м 3/0
[Ci fib]
+28.0 +20.4 63 +34 +34 очень
душно
1007.0 976.2 3
21 16.05 СЗ 1 4000 м ясно +26.6 +20.2 68 +33 +33 очень
душно
1006.0 975.1 3
00 17.05 С 1 4000 м ясно +26.6 +18.1 60 +31 +31 душно 1007.1 976.1
03 17.05 штиль 0 4000 м ясно +29.4 +18.6 52 +34 +45 очень
душно
1008.5 977.8 +25.3 +40.4 3
06 17.05 Ю 1 4000 м ясно +35.8 +17.2 33 +39 +63 опасность
солнечного
удара
1007.6 977.5
09 17.05 ЮЗ 2 2000 м 9/9 600 м
[Cb cap]
+38.8 +13.7 23 +39 +41 очень
жарко
1005.6 975.9
12 17.05 ЮЗ 5 4000 м 8/6 600 м
[Cb cap Ac trans]
+39.0 +11.5 19 +38 +39 очень
жарко
1001.9 972.3 +40.9
15 17.05 ЮЗ 6 2000 м пыльный позёмок 5/4 600 м
[Sc Ac trans Ci fib]
+31.0 +14.3 36 +33 +33 душно 1006.0 975.5
18 17.05 ЮЗ 3 2000 м 5/4 600 м
[Sc Ac trans Ci fib]
+31.0 +16.0 40 +34 +34 душно 1006.3 975.8
21 17.05 ЮЗ 1 4000 м ясно +27.4 +16.9 53 +31 +31 душно 1006.6 975.7
00 18.05 ЮЗ 1 4000 м ясно +26.0 +16.7 57 +30 +30 душно 1007.1 976.1
03 18.05 С 1 4000 м ясно +30.4 +17.2 45 +34 +43 очень
душно
1008.7 978.1 +25.4 +40.9
06 18.05 С 3 4000 м ясно +34.8 +16.2 33 +37 +56 опасность
солнечного
удара
1008.0 977.8
09 18.05 ЮЗ 3 4000 м 3/1 600 м
[Cu hum Ci fib]
+37.8 +15.9 28 +40 +53 опасность
солнечного
удара
1005.1 975.3
12 18.05 СВ 2 4000 м 6/5 600 м
[Cb cap Ci fib]
+37.2 +16.7 30 +40 +41 очень
душно
1003.6 973.8 +38.9
15 18.05 СЗ 2 4000 м 8/3 600 м
[Sc Ac trans Ci fib]
+33.0 +13.1 30 +34 +34 очень
жарко
1005.2 974.9
18 18.05 штиль 0 4000 м 3/1 600 м
[Cu hum Ac trans]
+30.4 +17.9 47 +35 +35 очень
душно
1006.6 976.0
21 18.05 штиль 0 4000 м 1/0
[Ac trans]
+29.0 +18.1 52 +34 +34 очень
душно
1005.5 974.8
00 19.05 З 1 4000 м 3/3 600 м
[Sc]
+28.2 +18.6 56 +33 +33 очень
душно
1005.5 974.7
03 19.05 С 1 4000 м ясно +32.0 +14.8 35 +34 +43 душно 1007.6 977.1 +27.8 +38.9
06 19.05 СЗ 1 4000 м 4/3 600 м
[Cu hum Ac trans]
+37.8 +14.0 24 +38 +54 опасность
солнечного
удара
1007.5 977.6
09 19.05 штиль 0 4000 м 5/5 600 м
[Sc]
+39.6 +12.5 20 +39 +51 опасность
солнечного
удара
1005.2 975.5
12 19.05 штиль 0 4000 м 4/4 600 м
[Sc]
+40.2 +9.7 16 +39 +41 очень
жарко
1003.4 973.9 +40.3
15 19.05 штиль 0 4000 м ясно +34.2 +11.6 25 +34 +34 очень
жарко
1005.2 975.0
18 19.05 штиль 0 4000 м ясно +30.8 +16.1 41 +34 +34 очень
душно
1007.0 976.4
21 19.05 штиль 0 4000 м 3/0
[Ac trans]
+28.8 +15.1 43 +31 +31 жарко 1006.5 975.8
00 20.05 штиль 0 4000 м ясно +28.0 +15.7 47 +31 +31 душно 1006.9 976.1
03 20.05 штиль 0 4000 м ясно +33.6 +12.6 28 +34 +44 очень
жарко
1008.6 978.3 +27.8 +40.3
06 20.05 штиль 0 4000 м ясно +40.0 +11.6 18 +39 +67 опасность
солнечного
удара
1007.4 977.7
09 20.05 СЗ 1 4000 м 4/4 600 м
[Cb calv]
+41.8 +10.5 16 +41 +53 опасность
перегрева
1004.8 975.4
12 20.05 СВ 1 4000 м 5/5 600 м
[Cb calv]
+40.4 +9.5 16 +39 +40 очень
жарко
1003.0 973.5 +42.3
15 20.05 штиль 0 4000 м 3/3 600 м
[Cu hum]
+37.0 +14.6 26 +38 +38 душно 1004.5 974.6
18 20.05 С 1 4000 м 4/4 600 м
[Sc]
+33.0 +15.4 35 +35 +35 душно 1006.6 976.3
21 20.05 штиль 0 4000 м 4/4 600 м
[Sc]
+31.8 +15.8 38 +34 +34 душно 1006.1 975.7
00 21.05 штиль 0 4000 м 3/3 600 м
[Sc]
+30.8 +16.1 41 +34 +34 очень
душно
1006.6 976.1
03 21.05 СЗ 1 4000 м 4/0
[Ci fib]
+34.8 +16.2 33 +37 +46 очень
душно
1006.4 976.3 +29.2 +42.3
06 21.05 СЗ 1 4000 м ясно +40.2 +13.1 20 +40 +66 опасность
солнечного
удара
1005.5 975.9
09 21.05 СВ 1 4000 м 5/5 600 м
[Cb calv]
+43.2 +10.4 14 +42 +52 опасность
перегрева
1002.5 973.3
12 21.05 ЮЗ 1 4000 м 6/6 600 м
[Cb calv]
+41.8 +11.7 17 +41 +42 опасность
перегрева
1000.8 971.5 +43.8
15 21.05 штиль 0 4000 м ясно +37.6 +16.9 30 +40 +40 очень
душно
1002.7 972.9
18 21.05 штиль 0 4000 м ясно +32.2 +16.8 40 +36 +36 очень
душно
1004.9 974.6
21 21.05 З 1 4000 м ясно +30.4 +17.2 45 +34 +34 очень
душно
1004.5 974.0
00 22.05 штиль 0 4000 м ясно +29.4 +16.7 46 +33 +33 душно 1004.7 974.1
03 22.05 штиль 0 4000 м ясно +35.2 +15.9 32 +37 +48 очень
душно
1004.9 974.8 +28.2 +43.8
06 22.05 СВ 1 4000 м 1/0
[Ci fib]
+39.8 +15.3 24 +41 +65 опасность
перегрева
1003.6 974.0
09 22.05 штиль 0 4000 м 6/6 600 м
[Sc]
+42.2 +15.5 21 +43 +53 опасность
перегрева
1001.2 971.9
12 22.05 ЮЗ 1 4000 м 6/5 600 м
[Sc Ci fib]
+41.0 +13.4 20 +41 +43 опасность
перегрева
999.1 969.8 +43.3
15 22.05 ЮЗ 1 4000 м 4/0 600 м
[Ac trans]
+35.4 +17.5 35 +39 +39 очень
душно
1001.6 971.7
18 22.05 штиль 0 4000 м ясно +32.6 +18.5 43 +37 +37 очень
душно
1003.1 972.8
21 22.05 штиль 0 4000 м ясно +31.8 +18.6 46 +37 +37 очень
душно
1001.5 971.2
00 23.05 ЮЗ 1 4000 м 4/0
[Ci fib]
+21.6 +15.5 68 +25 +25 комфорт 1001.9 970.6
03 23.05 ЮЗ 2 4000 м 3/0
[Ci fib]
+36.4 +16.0 30 +38 +46 очень
душно
1003.7 973.8 +31.0 +43.3

 

Местоположение метеостанции Кота (Раджастхан, Индия): широта 25.15 долгота 75.85 высота над уровнем моря 274 м.

В архиве по умолчанию представлена погода в Коте за последнюю неделю. Архивные данные за месяц целиком и за предыдущие месяцы, начиная с января 2011 года, Вы можете получить, выбрав интересующий диапазон дат из раскрывающегося списка и нажав кнопку "Ввод!".


*Определитесь, кто Вы:
робот инопланетянин человек

Внимание! Время в таблицах - всемирное. Для получения местного времени необходимо прибавить поправку, которая равна 5.5 ч.

Смотрите также архив погоды в соседних городах и на ближайших метеорологических станциях:

Погода в Шеопуре (Мадхья-Прадеш, Индия) (101 км)
Погода в Бхилваре (Раджастхан, Индия) (125 км)
Погода в Читторгархе (Раджастхан, Индия) (127 км)
Погода в Раджгархе (Мадхья-Прадеш, Индия) (155 км)
Погода в Гуне (Мадхья-Прадеш, Индия) (158 км)
Погода в Шивпури (Мадхья-Прадеш, Индия) (182 км)
Погода в Джайпуре (Раджастхан, Индия) (186 км)
Погода в Аджмере (Раджастхан, Индия) (190 км)
Погода в Шаджапуре (Мадхья-Прадеш, Индия) (197 км)
Погода в Аэропорту Махараны Пратапа (Раджастхан, Индия) (207 км)

Пояснения к столбцам:

Ветер - указаны скорость ветра в м/с - средняя за 10 мин, порывы в срок и между сроками (в фигурных скобках) и направление, откуда дует ветер: С - северный, СВ - северо-восточный, В - восточный, ЮВ - юго-восточный, Ю - южный, ЮЗ - юго-западный, З - западный, СЗ - северо-западный.
Видимость - горизонтальная дальность видимости в метрах или километрах. При видимости от 1 до 10 км при отсутствии осадков обычно наблюдается дымка, при ухудшении видимости до 1 км и менее - туман. В сухую погоду видимость может ухудшаться дымом, пылью или мглою.
Явления - указаны атмосферные явления, наблюдавшиеся в срок или в последний час перед сроком; фигурными скобками обозначены явления, наблюдавшиеся между сроками (за 1-3 часа до срока); квадратными скобками обозначены град или гололедные отложения с указанием их диаметра в мм.
Облачность - указаны через наклонную черту общая и нижняя облачность в баллах и высота нижней границы облаков в метрах; квадратными скобками обозначены формы облаков: Ci - перистые, Cs - перисто-слоистые, Cc - перисто-кучевые, Ac - высококучевые, As - высокослоистые, Sc - слоисто-кучевые, Ns - слоисто-дождевые, Cu - кучевые, Cb - кучево-дождевые. Подробнее классификацию облаков см. в Атласе облаков (PDF).
T - Температура воздуха - температура, измеренная на высоте 2 м над землей.
Td - Температура точки росы - температура, при понижении до которой содержащийся в воздухе водяной пар достигнет насыщения.
f - Относительная влажность воздуха - влажноcть воздуха, измеренная на высоте 2 м над землей.
Te - Эффективная температура - температура, которую ощущает одетый по сезону человек в тени. Характеристика душности погоды. При расчете учитывается влияние влажности воздуха и скорости ветра на теплоощущения человека.
Tes - Эффективная температура на солнце - температура, которую ощущает человек, с поправкой на солнечный нагрев. Характеристика знойности погоды. Зависит от высоты солнца над горизонтом, облачности и скорости ветра. Ночью, в пасмурную погоду, а также при ветре 12 м/с и более поправка равна нулю.
P - Атмосферное давление - приведенное к уровню моря атмосферное давление.
Po - Атмосферное давление - измеренное на уровне метеостанции атмосферное давление.
Tmin - Минимальная температура - минимум температуры воздуха на высоте 2 м над землей.
Tmax - Максимальная температура - максимум температуры воздуха на высоте 2 м над землей.
R - Количество осадков - Количество выпавших осадков за период времени, мм. При наведении курсора мыши на число - период времени, за который выпало указанное количество осадков.
R24 - Количество осадков - Количество выпавших осадков за 24 часа, мм.
S - Снежный покров - Высота снежного покрова, см. При наведении курсора мыши на число - состояние снежного покрова и степень покрытия местности в баллах.